STARLINK-32078 (60338 NORAD) Tracking and Keplerian Element Data

This shows tracking and keplerian element data for the satellite.

Feedback or suggestion? Click here.




ElementValue
Catalog60338
NameSTARLINK-32078
Epoch Orbit1108
Epoch Day286.44513925
Epoch Year2024
RAAN299.6916
Inclination53.1621
Eccentricity0.0001854
Argument of Perigee97.5082
Mean Anonmoly262.6129
Mean Motion15.30191297
Decay Rate-3.544E-05
L11 60338U 24136K 24286.44513925 -.00003544 00000+0 -10759-3 0 9993
L22 60338 53.1621 299.6916 0001854 97.5082 262.6129 15.30191297 11087



Live tracking and technical data element details for STARLINK-32078 (NORAD 60338). STARLINK-32078 can be tracked NOW for your location showing map with azimuth and elevation plus other details from your city location.







IsCatalogInMostPopularTable: catalog: 60338, numindb: 7
Update: records affected: 1



GetName: 60338 STARLINK-32078

Hit Count: updated at: Fri, 06 Dec 2024 12:14:24 GMT